Regional Weather Roundup
Issued by NWS Newport/Morehead, NC

Current Version | Previous Version | Graphics & Text | Print | Product List | Glossary Off
Versions: 1 2 3 4 5 6 7 8 9 10 11 12 13 14 15 16 17 18 19 20 21 22 23 24 25 26 27 28 29 30 31 32 33 34 35 36 37 38 39 40 41 42 43 44 45 46 47 48 49 50

000
ASUS42 KMHX 210610
RWRMHX
WEATHER ROUNDUP FOR EASTERN NORTH CAROLINA
NATIONAL WEATHER SERVICE NEWPORT/MOREHEAD CITY NC
200 AM EDT THU AUG 21 2014

NOTE: "FAIR" INDICATES FEW OR NO CLOUDS BELOW 12,000 FEET
WITH NO SIGNIFICANT WEATHER AND/OR OBSTRUCTIONS TO VISIBILITY

NCZ015>017-031-032-045>047-102-103-210700-
NORTH COAST

CITY           SKY/WX    TMP DP  RH WIND       PRES   REMARKS
EDENTON        FAIR      76  74  93 S6        30.00S
ELIZABETH CITY FAIR      73  71  93 CALM      30.01S FOG
KITTY HAWK     FAIR      74  72  91 CALM      30.00S
MANTEO         FAIR      75  72  88 CALM      30.02R

$$

NCZ045>047-081-094-103-104-210700-
CENTRAL COAST

CITY           SKY/WX    TMP DP  RH WIND       PRES   REMARKS
FRISCO         FAIR      74  73  97 SE5       30.01F
SWANQUARTER      N/A     81 N/A N/A S6        29.97S

$$

NCZ095-097-098-100-101-210700-
SOUTHERN COAST

CITY           SKY/WX    TMP DP  RH WIND       PRES   REMARKS
BEAUFORT       FAIR      79  76  90 CALM      30.01F
CEDAR ISLAND     N/A     77 N/A N/A S2        30.06S
JACKSONVILLE   FAIR      75  74  96 CALM      30.01F FOG
NEWPORT        NOT AVBL
PINEY ISLAND   NOT AVBL
WILMINGTON     FAIR      74  73  97 CALM      30.01F FOG


$$

NCZ011>013-027>030-043-044-078>080-089-090>093-098-210700-
COASTAL PLAIN

CITY           SKY/WX    TMP DP  RH WIND       PRES   REMARKS
AHOSKIE        FAIR      72  71  96 CALM      29.99F
CLINTON        FAIR      74  74 100 CALM      30.01F FOG
ELIZABETHTOWN  FAIR      77  74  91 CALM      30.01S
GOLDSBORO      FAIR      76  75  98 S3        29.98F
GREENVILLE     FAIR      77  75  94 S3        30.01F
HAVELOCK       CLEAR     75  73  93 CALM      30.02F
KENANSVILLE    FAIR      72  70  96 CALM      30.01F FOG
KINSTON        FAIR      75  74  96 CALM      30.01F
NEW BERN       FAIR      77  73  87 S3        30.02F
RICHLANDS      FAIR      72  70  94 CALM      30.01F
ROANOKE RAPIDS NOT AVBL
ROCKY MOUNT    FAIR      73  71  93 CALM      30.00F FOG
WASHINGTON     FAIR      76  74  95 S3        30.00F
WHITEVILLE     FAIR      75  73  94 CALM      30.01S

$$

AMZ130-135-150-152-154-156-158-170-250-252-270-ANZ085-086-088-633-658-670-210700-
MARINE OBSERVATIONS

STATION/POSITION TIME  TEMP    WIND        PRES    WAVE   SWELL
                       AIR SEA DIR/SP/G            HT/PER HT/PER
                 (UTC) (F)     (DEG/KT/KT) (MB)    (FT/S) (FT/S)
CHESAPEAKE LIGHT 0500   76     170/ 10/ 10 1017.0
BUOY 44014       0600   76 78  190/  2/  2 1016.3    3/ 6   2/ 6
DUCK             0600   77 79  160/  7/  8 1015.5
2E DUCK          0600                        N/A     2/ 5
OREGON INLET     0600   76 81  130/  3/  5 1016.0
BUOY 44095       0600      80                N/A     3/ 8
20E OREGON INLET NOT AVBL
HATTERAS CG      0600   79 81  140/  4/  6 1016.6
DIAMOND BUOY     0600   78      CALM  /  4 1016.3    2/ 8
CAPE LOOKOUT     0500   80     230/  5/  6 1016.7
BEAUFORT LAB     0600   80 82  210/  3/  5 1016.0
30 SE NEW RIVER  0600   81 82  230/  4/  6 1016.1    3/ 6   3/ 6
5 SE WRIGHTSVILL 0600   78 82  180/  4/  4   N/A
BUOY 41002       0457   81 81  250/ 14/ 16 1018.2    3/ 7   2/ 7
BUOY 41004       0600   83 84  220/ 10/ 12 1016.0    3/ 4   2/ 8

$$


USA.gov is the U.S. government's official web portal to all federal, state and local government web resources and services.